OE3GWU-13 Weather Reports


time (UTC)temp
F
wind
direction
speed
knots
gust
knots
rain 1hr
in
rain 24hr
in
rain mn
in
humidity
%
barometer
mb
20260905235004 47 345 0.0 0.9 0.00 0.11 0.11 92 1011.9
20260905233004 48 349 0.0 1.7 0.00 0.11 0.11 92 1011.9
20260905232004 48 357 0.9 0.9 0.00 0.11 0.11 92 1011.9
20260905225004 49 358 0.0 0.9 0.00 0.11 0.11 92 1011.9
20260905224004 49 359 0.0 1.7 0.00 0.11 0.11 93 1011.9
20260905223004 50 351 0.0 1.7 0.00 0.11 0.11 91 1011.5
20260905222004 49 8 0.9 0.9 0.00 0.11 0.11 94 1011.5
20260905220004 50 3 0.9 1.7 0.00 0.11 0.11 94 1011.5
20260905215004 50 351 0.0 0.9 0.00 0.11 0.11 96 1011.5
20260905213009 49 350 0.0 0.9 0.00 0.11 0.11 97 1011.2
20260905212005 50 346 0.0 0.9 0.00 0.11 0.11 97 1010.8
20260905211004 50 323 0.9 0.9 0.00 0.11 0.11 97 1011.2
20260905205004 51 338 0.0 0.9 0.00 0.11 0.11 96 1011.2
20260905204004 51 337 0.0 0.9 0.00 0.11 0.11 96 1010.8
20260905203004 53 326 0.9 0.9 0.00 0.11 0.11 93 1011.2
20260905200004 53 343 0.0 0.0 0.00 0.11 0.11 94 1010.5
20260905195004 54 354 0.0 0.9 0.00 0.11 0.11 91 1010.6
20260905194004 55 331 0.0 0.9 0.00 0.11 0.11 91 1010.5
20260905193004 55 333 0.0 0.9 0.00 0.11 0.11 91 1010.5
20260905192004 54 30 0.9 0.9 0.00 0.11 0.11 93 1010.5
20260905191004 55 342 0.0 0.0 0.00 0.11 0.11 92 1010.2
20260905190004 55 340 0.0 0.0 0.00 0.11 0.11 90 1010.5
20260905184004 56 352 0.0 0.0 0.00 0.11 0.11 88 1010.2
20260905181004 57 349 0.0 0.9 0.00 0.11 0.11 83 1009.8
20260905180004 58 344 0.0 0.9 0.00 0.11 0.11 81 1009.5
20260905173004 60 45 0.9 4.3 0.00 0.11 0.11 77 1008.8
20260905171004 60 348 0.0 4.3 0.00 0.11 0.11 75 1008.8
20260905170004 60 1 1.7 2.6 0.00 0.11 0.11 76 1009.1
20260905164004 61 25 2.6 5.2 0.00 0.11 0.11 71 1008.8
20260905162004 62 193 0.9 5.2 0.00 0.11 0.11 70 1008.8
20260905161004 62 14 0.9 7.0 0.00 0.11 0.11 70 1008.8
20260905160004 62 52 0.9 15.6 0.00 0.11 0.11 70 1008.5
20260905155004 62 327 0.9 6.1 0.00 0.11 0.11 68 1008.5
20260905154004 63 232 2.6 5.2 0.00 0.11 0.11 67 1008.5
20260905153004 63 10 1.7 1.7 0.00 0.11 0.11 67 1008.5
20260905152004 63 335 0.9 1.7 0.00 0.11 0.11 70 1008.8
20260905151004 64 44 0.9 4.3 0.00 0.11 0.11 68 1008.5
20260905150004 63 23 2.6 7.0 0.00 0.11 0.11 68 1008.8
20260905144004 64 344 1.7 11.3 0.00 0.11 0.11 68 1008.5
20260905141004 63 350 0.9 4.3 0.00 0.11 0.11 70 1008.8
20260905135004 66 358 1.7 6.1 0.00 0.11 0.11 65 1008.8
20260905134004 66 347 1.7 7.8 0.00 0.11 0.11 66 1008.8
20260905133004 63 304 3.5 7.8 0.00 0.11 0.11 71 1008.8
20260905132004 63 14 1.7 2.6 0.00 0.11 0.11 72 1008.8
20260905130004 63 18 1.7 4.3 0.00 0.11 0.11 72 1008.8
20260905125004 65 223 5.2 8.7 0.00 0.11 0.11 74 1008.8
20260905124004 64 22 2.6 4.3 0.00 0.11 0.11 76 1008.8
20260905123004 62 213 1.7 2.6 0.00 0.11 0.11 80 1009.1
20260905122004 60 356 0.9 5.2 0.00 0.11 0.11 82 1009.1
20260905121004 60 356 1.7 4.3 0.00 0.11 0.11 83 1009.1
20260905120004 61 19 0.9 4.3 0.00 0.11 0.11 81 1008.8
20260905115004 61 339 0.9 4.3 0.00 0.11 0.11 81 1009.1
20260905114004 63 2 0.9 2.6 0.00 0.11 0.11 78 1008.8
20260905113004 60 345 0.9 1.7 0.00 0.11 0.11 85 1008.8
20260905110004 58 351 1.7 2.6 0.00 0.11 0.11 89 1008.8
20260905104004 57 243 0.0 5.2 0.00 0.11 0.11 90 1009.1
20260905103004 56 328 0.9 7.8 0.00 0.11 0.11 93 1009.1
20260905101004 56 296 1.7 2.6 0.00 0.11 0.11 92 1009.1
20260905100004 56 228 1.7 5.2 0.00 0.11 0.11 91 1009.1
20260905094004 56 196 1.7 7.8 0.00 0.11 0.11 91 1009.1
20260905092004 55 141 2.6 5.2 0.00 0.11 0.11 94 1009.1
20260905091004 55 222 1.7 4.3 0.00 0.11 0.11 96 1008.9
20260905085004 55 275 1.7 7.0 0.00 0.11 0.11 96 1008.8
20260905083004 55 201 5.2 7.0 0.00 0.11 0.11 96 1008.5
20260905082005 55 232 2.6 5.2 0.01 0.11 0.11 96 1008.5
20260905081004 55 307 1.7 5.2 0.02 0.11 0.11 97 1008.1
20260905080004 55 181 1.7 5.2 0.02 0.11 0.11 98 1008.5
20260905075004 55 279 1.7 4.3 0.02 0.11 0.11 95 1008.1
20260905074004 54 205 2.6 2.6 0.03 0.11 0.11 98 1008.5
20260905073004 53 337 0.9 2.6 0.03 0.11 0.11 98 1008.1
20260905072006 53 302 1.7 5.2 0.03 0.10 0.10 97 1007.8
20260905071004 53 317 1.7 1.7 0.03 0.09 0.09 99 1007.8
20260905070004 53 333 0.9 1.7 0.03 0.09 0.09 99 1007.8
20260905065004 53 303 0.9 1.7 0.03 0.09 0.09 99 1007.5
20260905063004 53 314 0.9 5.2 0.07 0.08 0.08 98 1007.8
20260905061004 53 21 0.9 1.7 0.06 0.06 0.06 98 1007.1
20260905060004 53 0 0.9 2.6 0.06 0.06 0.06 98 1007.1
20260905055004 53 336 0.9 8.7 0.06 0.06 0.06 98 1007.1
20260905054004 54 42 0.9 6.1 0.05 0.05 0.05 97 1007.5
20260905053004 55 14 2.6 4.3 0.01 0.01 0.01 93 1007.5
20260905052004 55 357 2.6 8.7 0.00 0.00 0.00 89 1007.5
20260905044004 56 353 0.9 4.3 0.00 0.00 0.00 87 1006.8
20260905041005 58 356 0.0 8.7 0.00 0.00 0.00 77 1006.1
20260905040004 58 24 3.5 8.7 0.00 0.00 0.00 76 1005.7
20260905034004 58 7 0.9 4.3 0.00 0.00 0.00 76 1005.6
20260905032004 58 19 2.6 4.3 0.00 0.00 0.00 77 1005.4
20260905031004 58 11 2.6 4.3 0.00 0.00 0.00 79 1005.4
20260905025004 59 19 1.7 7.8 0.00 0.00 0.00 81 1005.4
20260905024004 59 330 6.1 8.7 0.00 0.00 0.00 82 1005.4
20260905023004 60 16 5.2 13.0 0.00 0.00 0.00 81 1005.4
20260905022004 63 35 7.8 12.2 0.00 0.00 0.00 78 1005.4
20260905021004 66 7 4.3 7.8 0.00 0.00 0.00 71 1004.4
20260905015004 66 313 1.7 4.3 0.00 0.00 0.00 70 1004.1
20260905012004 67 344 0.0 2.6 0.00 0.00 0.00 69 1004.1
20260905011004 67 150 1.7 2.6 0.00 0.00 0.00 67 1004.1
20260905010004 68 352 0.0 4.3 0.00 0.00 0.00 66 1004.1
20260905005004 68 4 0.0 1.7 0.00 0.00 0.00 67 1004.1
20260905003004 68 22 0.9 1.7 0.00 0.00 0.00 66 1004.1
20260905000008 68 357 1.7 1.7 0.00 0.00 0.00 66 1003.7